COSMOS 1275 DEB

Satellite information

Favourite Embed

Satellite Type and Status

DEBRISIN ORBIT

Key statistics

Satellite COSMOS 1275 DEB at a glance.

Uptime

16215

Days in orbit

Revolutions

≈ 14.3

Per day

Orbit

LEO

Low Earth Orbit

Inclination

82.9

Latest

Satellite identification and parameters

Extended collection of information and parameters for COSMOS 1275 DEB.

Object identification

Identified? True

Debris? True

Object name: COSMOS 1275 DEB

International designator: 1981-053HB

Object number (NORAD): 13807

Object ID (CCSDS): 13807

Country: COMMONWEALTH OF INDEPENDENT STATES (CIS)

Current information (Y/N): Y

RCS size: SMALL

Orbital parameters

Period: 100.703 minutes

Inclination: 82.9492 deg

SMA: 7170.02 km

Apoapsis: 802.217 km

Periapsis: 781.553 km

RAAN: 215.7462 deg

Eccentricy: 0.00144098

Argument of periapsis: 41.8433 deg

Mean anomaly: 318.3852 deg

Mean motion: 14.29954458 rev/day

Mean motion (dot): 0.00004972 rev/day2

B* drag term: 0.0019210676 1/REarth

Two-line elements (TLE)

Creation date: Oct. 26, 2025, 2:54 a.m.

Reference frame: TEME

Reference center: EARTH

Epoch: Oct. 25, 2025, 6:40 p.m. UTC

TLE line 0: 0 COSMOS 1275 DEB

TLE line 1: 1 13807U 81053HB 25298.77804325 .00004972 00000-0 19211-2 0 9996

TLE line 2: 2 13807 82.9492 215.7462 0014410 41.8433 318.3852 14.29954458946128

Live tracking on map

Real-time ground track for satellite COSMOS 1275 DEB.

In-orbit conjunctions

A list of the most updated potential collisions computed for object COSMOS 1275 DEB.

Target Orbit TCA Probability of collision Miss distance Type
DMSP 5D-3 F17 DEB SSO 2025-05-03 21:09:10 0.0007476462 91.0 (m) DEBRIS
CZ-6A DEB LEO 2025-02-22 11:24:54 0.0001076503 864.0 (m) DEBRIS
CZ-6A DEB LEO 2024-10-10 13:38:29 0.0005438421 661.0 (m) DEBRIS
NOAA 16 DEB SSO 2024-09-28 12:58:09 0.0001994454 362.0 (m) DEBRIS
NOAA 16 DEB SSO 2024-09-28 01:11:52 0.0003488373 812.0 (m) DEBRIS

Associated space launch

Navigation satellite providing location information for the Tsiklon-B navigation system

COSMOS 1275 DEB was lifted into orbit during the mission ‘Kosmos-3M | Parus 27’, on board a Kosmos-3M space rocket.

The launch took place on June 4, 1981, 3:41 p.m. from 132/2.

For more information about the launch, click the button.

Launch to space Kosmos-3M | Parus 27
Kosmos-3M | Parus 27

Agency: N/A

Status: Launch Successful

Launch date: June 4, 1981, 3:41 p.m. UTC

Rocket: Kosmos-3M

Launch pad: 132/2

Location: Plesetsk Cosmodrome, Russian Federation

...

Latest news about this satellite

There are no fresh news available about this satellite. Check back as we update our databases every day.


Newsletter sign-up

Weekly statistics, charts and insights to help you stay on top of the space industry.